This demonstration page uses our WeatherBlox Daily Observations layout. Learn more.

Left ArrowRight Arrow

38.88101, -77.10428

Hourly Observations for January 14, 2022

Temp ( °F °C ) Dew Point ( °F °C ) Humidity (%) Winds ( mph kmh ) Pressure ( in mb ) Visibility ( mi km ) Precip ( " mm )
12:52 am 00:52 Cloudy 42 5.6 28 -2.2 58 58 NNW 8 13 29.81 1010 10 16 0.00 0.00
1:52 am 01:52 Cloudy 40 4.4 28 -2.2 63 63 NNW 7 11 29.82 1010 10 16 0.00 0.00
2:52 am 02:52 Cloudy 40 4.4 28 -2.2 63 63 NNW 6 9 29.82 1010 10 16 0.00 0.00
3:52 am 03:52 Cloudy 38 3.3 27 -2.8 65 65 NNW 8 13 29.82 1010 10 16 0.00 0.00
4:52 am 04:52 Cloudy 38 3.3 27 -2.8 65 65 NNW 8 13 29.81 1010 10 16 0.00 0.00
5:52 am 05:52 Cloudy 38 3.3 27 -2.8 65 65 NNW 10 17 29.82 1010 10 16 0.00 0.00
6:52 am 06:52 Cloudy 39 3.9 28 -2.2 65 65 NNW 9 15 29.82 1010 10 16 0.00 0.00
7:52 am 07:52 Cloudy 41 5 31 -0.6 67 67 NNW 12 19 29.83 1010 9 14 0.00 0.00
8:52 am 08:52 Mostly Cloudy 43 6.1 33 0.6 68 68 NNW 14 22 29.84 1010 10 16 0.00 0.00
9:52 am 09:52 Cloudy 45 7.2 33 0.6 63 63 NNW 10 17 29.87 1011 10 16 0.00 0.00
10:52 am 10:52 Mostly Cloudy 47 8.3 34 1.1 61 61 NNW 17 28 29.87 1011 10 16 0.00 0.00
11:52 am 11:52 Mostly Cloudy 49 9.4 33 0.6 55 55 NNW 22 35 29.86 1011 10 16 0.00 0.00
12:52 pm 12:52 Mostly Cloudy 48 8.9 32 0 54 54 NNW 22 35 29.85 1011 10 16 0.00 0.00
1:52 pm 13:52 Mostly Cloudy 48 8.9 32 0 54 54 NNW 22 35 29.87 1011 10 16 0.00 0.00
2:52 pm 14:52 Partly Cloudy 47 8.3 30 -1.1 52 52 NW 20 31 29.88 1012 10 16 0.00 0.00
3:52 pm 15:52 Mostly Sunny 47 8.3 29 -1.7 50 50 NW 17 28 29.89 1012 10 16 0.00 0.00
4:52 pm 16:52 Mostly Sunny 44 6.7 27 -2.8 51 51 NNW 20 31 29.93 1013 10 16 0.00 0.00
5:52 pm 17:52 Partly Cloudy 41 5 26 -3.3 55 55 NNW 21 33 29.95 1014 10 16 0.00 0.00
6:52 pm 18:52 Mostly Clear 40 4.4 25 -3.9 55 55 NNW 18 30 29.97 1015 10 16 0.00 0.00
7:52 pm 19:52 Cloudy 41 5 25 -3.9 53 53 N 20 31 29.99 1016 10 16 0.00 0.00
8:52 pm 20:52 Cloudy 39 3.9 24 -4.4 55 55 N 16 26 30.02 1017 10 16 0.00 0.00
9:52 pm 21:52 Cloudy 38 3.3 23 -5 55 55 N 14 22 30.04 1017 10 16 0.00 0.00
10:52 pm 22:52 Mostly Cloudy 36 2.2 23 -5 59 59 NNE 17 28 30.05 1018 10 16 0.00 0.00
11:52 pm 23:52 Mostly Cloudy 34 1.1 18 -7.8 52 52 N 18 30 30.08 1019 10 16 0.00 0.00

Powered by AerisWeather